User: anonymous   Login
Location: Unspecified
(51.3762°N, 0.0000°E)
Time: 13:23:37
(UTC+00:00)
Language:

DX 1 - Orbit

View from above orbital plane
View from above orbital plane
View from above satellite
View from above satellite

Ground track
Ground track

The orbit data is extracted from the following two-line orbital elements,

1 40071U 14037C   19229.20134839  .00000031  00000-0  11484-4 0  9996
2 40071  98.4334  26.1454 0009255  41.2943 318.8960 14.81282557276060
Epoch (UTC): 17 August 2019 04:49:56
Eccentricity: 0.0009255
inclination: 98.4334°
perigee height: 619 km
apogee height: 632 km
right ascension of ascending node: 26.1454°
argument of perigee: 41.2943°
revolutions per day: 14.81282557
mean anomaly at epoch: 318.8960°
orbit number at epoch: 27606

The dashed part of the orbit path shows where the satellite is in the earth's shadow,  

DLR